Simultaneous Nadir Overpasses (SNOs) Predictions

Prediction of SNOs between METOP-B and NOAA-19 Satellite Orbit:

Table of predicted SNOs for the next 14.0 days since TLE Epoch: 9/4/2020
Index Date (METOP-B) Time (METOP-B) Lat,Lon (METOP-B) SZA (METOP-B ) Date (NOAA-19) Time (NOAA-19) Lat,Lon (NOAA-19) SZA (NOAA-19 ) Distance(km) Time Diff (sec)
1 09/07/2020 00:56:54 -80.19, 9.79 104.91 09/07/2020 00:55:42 -80.17, 9.70 104.96 3.36 72
2 09/07/2020 01:47:35 80.18, 177.02 75.09 09/07/2020 01:46:47 80.16, 176.98 75.06 2.26 48
3 09/07/2020 02:38:16 -80.18, -15.69 104.90 09/07/2020 02:37:42 -80.16, -15.63 104.93 2.83 34
4 09/07/2020 03:28:57 80.17, 151.54 75.10 09/07/2020 03:28:47 80.15, 151.65 75.09 3.01 10
5 09/07/2020 04:19:38 -80.17, -41.17 104.90 09/07/2020 04:19:43 -80.17, -41.29 104.91 2.28 5
6 09/07/2020 05:10:19 80.16, 126.05 75.10 09/07/2020 05:10:48 80.16, 126.00 75.11 1.12 29
7 09/07/2020 06:01:00 -80.15, -66.65 104.89 09/07/2020 06:01:43 -80.16, -66.62 104.88 0.57 43
8 09/07/2020 06:51:40 80.14, 100.57 75.11 09/07/2020 06:52:47 80.15, 100.67 75.14 2.11 67
9 09/18/2020 02:10:09 -80.20, -8.41 100.61 09/18/2020 02:08:58 -80.19, -8.54 100.65 2.90 71
10 09/18/2020 03:00:50 80.18, 158.68 79.37 09/18/2020 03:00:04 80.20, 158.60 79.37 2.21 46
11 09/18/2020 03:51:31 -80.19, -33.89 100.60 09/18/2020 03:50:58 -80.18, -33.88 100.62 1.27 33
12 09/18/2020 04:42:12 80.17, 133.19 79.38 09/18/2020 04:42:04 80.19, 133.27 79.40 2.32 8
13 09/18/2020 05:32:53 -80.18, -59.38 100.60 09/18/2020 05:32:59 -80.19, -59.53 100.60 3.22 6
14 09/18/2020 06:23:33 80.18, 108.02 79.43 09/18/2020 06:24:04 80.18, 107.93 79.43 1.88 31
15 09/18/2020 07:14:15 -80.17, -84.86 100.59 09/18/2020 07:14:59 -80.18, -84.86 100.57 1.57 44
16 09/18/2020 08:04:55 80.17, 82.53 79.44 09/18/2020 08:06:04 80.16, 82.60 79.46 1.52 69
